FENGYUN 1C DEB

Satellite information

Favourite Embed

Satellite Type and Status

DEBRISIN ORBIT

Key statistics

Satellite FENGYUN 1C DEB at a glance.

Uptime

9555

Days in orbit

Revolutions

≈ 14.0

Per day

Orbit

SSO

Sun Synchronous Orbit

Inclination

98.7

Latest

Satellite identification and parameters

Extended collection of information and parameters for FENGYUN 1C DEB.

Object identification

Identified? True

Debris? True

Object name: FENGYUN 1C DEB

International designator: 1999-025CSK

Object number (NORAD): 32141

Object ID (CCSDS): 32141

Country: PEOPLES REPUBLIC OF CHINA (PRC)

Current information (Y/N): Y

RCS size: SMALL

Orbital parameters

Period: 102.623 minutes

Inclination: 98.7424 deg

SMA: 7260.872 km

Apoapsis: 935.88 km

Periapsis: 829.594 km

RAAN: 186.7067 deg

Eccentricy: 0.0073191

Argument of periapsis: 322.2219 deg

Mean anomaly: 37.3823 deg

Mean motion: 14.03200105 rev/day

Mean motion (dot): 0.00000742 rev/day2

B* drag term: 0.00049148 1/REarth

Two-line elements (TLE)

Creation date: June 27, 2025, 3:01 a.m.

Reference frame: TEME

Reference center: EARTH

Epoch: June 26, 2025, 7:13 p.m. UTC

TLE line 0: 0 FENGYUN 1C DEB

TLE line 1: 1 32141U 99025CSK 25177.80093581 .00000742 00000-0 49148-3 0 9994

TLE line 2: 2 32141 98.7424 186.7067 0073191 322.2219 37.3823 14.03200105925743

Live tracking on map

Real-time ground track for satellite FENGYUN 1C DEB.

In-orbit conjunctions

A list of the most updated potential collisions computed for object FENGYUN 1C DEB.

Target Orbit TCA Probability of collision Miss distance Type
EXPLORER 20 LEO 2024-12-01 00:38:23 0.0002640965 395.0 (m) PAYLOAD
DMSP 5D-2 F13 DEB SSO 2024-11-06 01:28:53 0.0001017046 126.0 (m) DEBRIS

Associated space launch

Chinese polar orbiting meteorological satellite

FENGYUN 1C DEB was lifted into orbit during the mission ‘Long March 4B | Feng Yun 1C’, on board a Long March 4B space rocket.

The launch took place on May 10, 1999, 1:33 a.m. from Launch Complex 7.

For more information about the launch, click the button.

Launch to space Long March 4B | Feng Yun 1C
Long March 4B | Feng Yun 1C

Agency: N/A

Status: Launch Successful

Launch date: May 10, 1999, 1:33 a.m. UTC

Rocket: Long March 4B

Launch pad: Launch Complex 7

Location: Taiyuan Satellite Launch Center, People's Republic of China

...

Latest news about this satellite

There are no fresh news available about this satellite. Check back as we update our databases every day.


Newsletter sign-up

Weekly statistics, charts and insights to help you stay on top of the space industry.